Centralia, IL

10:12 AM CDT on August 28, 2016 (GMT -0500)
Centralia Municipal

Weather History for KENL - October, 2012

Change the Weather History Date:

Saturday, October 27, 2012

  Actual Average (KSLO) Record (KSLO)
Temperature  
Mean Temperature 43 °F -  
Max Temperature 51 °F 65 °F 84 °F (2014)
Min Temperature 35 °F 41 °F 29 °F (1967)
Degree Days  
Heating Degree Days 22    
Moisture  
Dew Point 34 °F    
Average Humidity 70    
Maximum Humidity 86    
Minimum Humidity 55    
Precipitation  
Precipitation 0.00 in - - ()
Sea Level Pressure  
Sea Level Pressure 30.23 in    
Wind  
Wind Speed 10 mph (NNW)    
Max Wind Speed 17 mph    
Max Gust Speed 24 mph    
Visibility 10 miles    
Events      
Averages and records for this station are not official NWS values.
T = Trace of Precipitation, MM = Missing Value Source: NWS Daily Summary

Daily Weather History Graph

Daily Weather History Graph

Search for Another Location

Airport or City:

Trip Planner

Search our weather history database for the weather conditions in past years. The results will help you decide how hot, cold, wet, or windy it might be!

Date:

Astronomy

Oct. 27, 2012 Rise Set
Actual Time 7:18 AM CDT 6:01 PM CDT
Civil Twilight 6:50 AM CDT 6:28 PM CDT
Nautical Twilight 6:19 AM CDT 6:59 PM CDT
Astronomical Twilight 5:48 AM CDT 7:30 PM CDT
Moon 4:46 PM CDT (10/27) 5:14 AM CDT (10/27)
Length of Visible Light 11h 37m
Length of Day
10h 43m
Waxing Gibbous, 96% of the Moon is Illuminated
Oct 27
Waxing Gibbous
Oct 29
Full
Nov 6
Last Quarter
Nov 13
New
Nov 20
First Quarter

Hourly Weather History & Observations

Time (CDT) Temp. Windchill Dew Point Humidity Pressure Visibility Wind Dir Wind Speed Gust Speed Precip Events Conditions
12:15 AM 41.0 °F 35.2 °F 33.8 °F 76% 30.26 in 10.0 mi NNW 9.2 mph - N/A   Clear
12:35 AM 41.0 °F 34.7 °F 33.4 °F 74% 30.25 in 10.0 mi NNW 10.4 mph - N/A   Clear
12:55 AM 40.8 °F 35.0 °F 33.3 °F 74% 30.25 in 10.0 mi NNW 9.2 mph - N/A   Clear
1:15 AM 40.1 °F 34.1 °F 33.1 °F 76% 30.25 in 10.0 mi NNW 9.2 mph - N/A   Clear
1:35 AM 40.1 °F 34.1 °F 32.9 °F 75% 30.25 in 10.0 mi NNW 9.2 mph - N/A   Clear
1:55 AM 39.7 °F 34.3 °F 32.9 °F 77% 30.25 in 10.0 mi North 8.1 mph - N/A   Clear
2:15 AM 38.8 °F 33.8 °F 32.7 °F 79% 30.25 in 10.0 mi NNW 6.9 mph - N/A   Clear
2:35 AM 38.8 °F 32.6 °F 32.5 °F 78% 30.25 in 10.0 mi North 9.2 mph - N/A   Clear
2:55 AM 38.8 °F 33.2 °F 32.2 °F 77% 30.25 in 10.0 mi North 8.1 mph - N/A   Clear
3:15 AM 39.2 °F 33.6 °F 32.0 °F 75% 30.25 in 10.0 mi NNW 8.1 mph - N/A   Clear
3:35 AM 38.8 °F 32.6 °F 32.0 °F 76% 30.25 in 10.0 mi North 9.2 mph 16.1 mph N/A   Clear
3:55 AM 38.7 °F 31.4 °F 32.0 °F 77% 30.25 in 10.0 mi NNW 11.5 mph - N/A   Clear
4:15 AM 37.8 °F 31.8 °F 32.0 °F 80% 30.24 in 10.0 mi NNW 8.1 mph - N/A   Clear
4:35 AM 37.6 °F 31.6 °F 32.0 °F 80% 30.24 in 10.0 mi North 8.1 mph - N/A   Clear
4:55 AM 37.4 °F 30.3 °F 32.0 °F 81% 30.24 in 10.0 mi North 10.4 mph - N/A   Clear
5:15 AM 37.4 °F 30.3 °F 32.0 °F 81% 30.23 in 10.0 mi North 10.4 mph - N/A   Clear
5:35 AM 37.4 °F 30.8 °F 32.0 °F 81% 30.24 in 10.0 mi North 9.2 mph - N/A   Clear
5:55 AM 36.9 °F 29.6 °F 32.0 °F 83% 30.23 in 10.0 mi North 10.4 mph - N/A   Clear
6:15 AM 36.5 °F 30.3 °F 32.0 °F 84% 30.24 in 10.0 mi NNW 8.1 mph - N/A   Clear
6:55 AM 36.3 °F 30.1 °F 32.0 °F 84% 30.26 in 10.0 mi NNW 8.1 mph - N/A   Clear
7:15 AM 35.8 °F 28.8 °F 32.0 °F 86% 30.26 in 10.0 mi NNW 9.2 mph - N/A   Clear
7:35 AM 35.8 °F 28.8 °F 31.6 °F 85% 30.27 in 10.0 mi NW 9.2 mph - N/A   Clear
7:55 AM 36.5 °F 29.7 °F 32.0 °F 84% 30.27 in 10.0 mi NNW 9.2 mph - N/A   Clear
8:15 AM 37.0 °F 29.8 °F 32.0 °F 82% 30.27 in 10.0 mi NNW 10.4 mph - N/A   Clear
8:35 AM 37.9 °F 30.9 °F 32.2 °F 80% 30.27 in 10.0 mi North 10.4 mph - N/A   Clear
8:55 AM 39.2 °F 32.0 °F 32.0 °F 75% 30.27 in 10.0 mi North 11.5 mph 17.3 mph N/A   Clear
9:15 AM 40.3 °F 32.2 °F 32.7 °F 74% 30.28 in 10.0 mi North 15.0 mph - N/A   Clear
9:35 AM 41.7 °F 34.4 °F 34.2 °F 75% 30.28 in 10.0 mi North 13.8 mph 17.3 mph N/A   Clear
9:55 AM 42.8 °F 37.0 °F 33.8 °F 70% 30.27 in 10.0 mi North 10.4 mph 16.1 mph N/A   Clear
10:35 AM 44.8 °F 38.3 °F 35.8 °F 71% 30.27 in 10.0 mi North 13.8 mph - N/A   Clear
10:55 AM 45.7 °F 40.6 °F 36.0 °F 69% 30.27 in 10.0 mi North 10.4 mph - N/A   Clear
11:15 AM 47.3 °F - 37.4 °F 68% 30.26 in 10.0 mi North 13.8 mph 17.3 mph N/A   Clear
11:35 AM 47.7 °F - 36.9 °F 66% 30.26 in 10.0 mi North 15.0 mph 18.4 mph N/A   Scattered Clouds
11:55 AM 48.6 °F - 37.0 °F 64% 30.25 in 10.0 mi North 11.5 mph 20.7 mph N/A   Unknown
12:15 PM 48.7 °F - 36.7 °F 63% 30.24 in 10.0 mi North 12.7 mph 20.7 mph N/A   Scattered Clouds
12:35 PM 49.5 °F - 37.4 °F 63% 30.23 in 10.0 mi North 11.5 mph 19.6 mph N/A   Scattered Clouds
12:55 PM 50.4 °F - 37.8 °F 62% 30.23 in 10.0 mi North 10.4 mph 18.4 mph N/A   Scattered Clouds
1:15 PM 50.2 °F - 36.7 °F 60% 30.22 in 10.0 mi North 12.7 mph - N/A   Scattered Clouds
1:35 PM 50.9 °F - 36.0 °F 57% 30.22 in 10.0 mi NNW 11.5 mph 17.3 mph N/A   Scattered Clouds
1:55 PM 50.9 °F - 36.7 °F 58% 30.21 in 10.0 mi North 12.7 mph 24.2 mph N/A   Scattered Clouds
2:15 PM 51.3 °F - 35.6 °F 55% 30.20 in 10.0 mi North 10.4 mph 20.7 mph N/A   Scattered Clouds
2:35 PM 50.9 °F - 36.3 °F 57% 30.20 in 10.0 mi NNW 16.1 mph 19.6 mph N/A   Scattered Clouds
2:55 PM 50.9 °F - 36.0 °F 57% 30.19 in 10.0 mi North 15.0 mph 19.6 mph N/A   Scattered Clouds
3:15 PM 51.3 °F - 36.5 °F 57% 30.19 in 10.0 mi North 13.8 mph 19.6 mph N/A   Scattered Clouds
3:35 PM 51.3 °F - 35.6 °F 55% 30.19 in 10.0 mi North 12.7 mph - N/A   Scattered Clouds
3:55 PM 50.5 °F - 35.2 °F 56% 30.19 in 10.0 mi NNW 15.0 mph 19.6 mph N/A   Scattered Clouds
4:15 PM 50.4 °F - 35.8 °F 57% 30.19 in 10.0 mi North 15.0 mph 18.4 mph N/A   Scattered Clouds
4:35 PM 50.9 °F - 35.4 °F 55% 30.19 in 10.0 mi NNW 15.0 mph - N/A   Clear
4:55 PM 50.0 °F - 35.8 °F 58% 30.19 in 10.0 mi North 15.0 mph 21.9 mph N/A   Scattered Clouds
5:15 PM 49.8 °F - 35.1 °F 57% 30.20 in 10.0 mi North 17.3 mph 20.7 mph N/A   Scattered Clouds
5:35 PM 49.1 °F - 35.2 °F 59% 30.20 in 10.0 mi North 11.5 mph - N/A   Scattered Clouds
5:55 PM 48.2 °F - 35.2 °F 61% 30.20 in 10.0 mi North 13.8 mph - N/A   Clear
6:15 PM 46.9 °F - 34.9 °F 63% 30.20 in 10.0 mi North 8.1 mph - N/A   Clear
6:35 PM 46.4 °F 42.4 °F 34.7 °F 64% 30.21 in 10.0 mi North 8.1 mph - N/A   Clear
6:55 PM 46.0 °F 41.9 °F 34.5 °F 64% 30.20 in 10.0 mi North 8.1 mph - N/A   Clear
7:15 PM 45.5 °F 39.9 °F 34.2 °F 65% 30.20 in 10.0 mi North 11.5 mph - N/A   Clear
7:35 PM 44.6 °F 39.2 °F 33.8 °F 66% 30.20 in 10.0 mi NNW 10.4 mph - N/A   Clear
7:55 PM 44.6 °F 39.2 °F 33.3 °F 64% 30.20 in 10.0 mi NNW 10.4 mph - N/A   Clear
8:15 PM 44.1 °F 38.6 °F 33.1 °F 65% 30.20 in 10.0 mi North 10.4 mph - N/A   Clear
8:35 PM 43.5 °F 37.9 °F 32.9 °F 66% 30.20 in 10.0 mi North 10.4 mph 16.1 mph N/A   Clear
8:55 PM 43.3 °F 38.1 °F 32.5 °F 66% 30.20 in 10.0 mi North 9.2 mph - N/A   Clear
9:15 PM 43.2 °F 37.4 °F 32.4 °F 66% 30.20 in 10.0 mi North 10.4 mph - N/A   Clear
9:35 PM 42.6 °F 37.2 °F 32.4 °F 67% 30.20 in 10.0 mi North 9.2 mph - N/A   Clear
9:55 PM 41.9 °F 36.9 °F 32.4 °F 69% 30.20 in 10.0 mi North 8.1 mph - N/A   Clear
10:15 PM 40.8 °F 36.9 °F 32.4 °F 72% 30.21 in 10.0 mi NNW 5.8 mph - N/A   Clear
10:35 PM 40.3 °F 35.5 °F 32.4 °F 73% 30.21 in 10.0 mi NNW 6.9 mph - N/A   Clear
10:55 PM 40.3 °F 34.4 °F 32.2 °F 73% 30.21 in 10.0 mi NNW 9.2 mph - N/A   Clear
11:15 PM 40.1 °F 34.1 °F 32.2 °F 73% 30.20 in 10.0 mi NNW 9.2 mph - N/A   Clear
11:35 PM 40.1 °F 33.6 °F 32.0 °F 73% 30.21 in 10.0 mi NNW 10.4 mph - N/A   Clear
11:55 PM 39.6 °F 34.0 °F 32.0 °F 74% 30.21 in 10.0 mi NNW 8.1 mph - N/A   Clear